Back to catalog

COSMOS 2251 DEB

AliveLEO
NORAD 33798·DEBRIS·🇷🇺 Russia

Launched Jun 16, 1993 from Plesetsk Cosmodrome

Loading…

Next Passes (next 24 hours)

TLE

FreshSource: Space-Track

Epoch: Sep 14, 2026, 13:33 UTC

1 33798U 93036AP  26257.56519766  .00000221  00000-0  68178-4 0  9997
2 33798  74.0317 342.0249 0090586  34.7660  26.2614 14.44859210925771

Track COSMOS 2251 DEB in real time with AllMySat

Download on the App Store